Regional Weather Roundup
Issued by NWS

Home | Current Version | Previous Version | Text Only | Print | Product List | Glossary On
Versions: 1 2 3 4 5 6 7 8 9 10 11 12 13 14 15 16 17 18 19 20 21 22 23 24 25 26 27 28 29 30 31 32 33 34 35 36 37 38 39 40 41 42 43 44 45 46 47 48 49 50
088
ASUS45 KPSR 250010
RWRAZ

ARIZONA HOURLY REGIONAL WEATHER ROUNDUP
NATIONAL WEATHER SERVICE PHOENIX AZ
500 PM MST FRI MAR 24 2017

NOTE: FAIR INDICATES FEW OR NO CLOUDS BELOW 12,000 FEET WITH NO
SIGNIFICANT WEATHER AND/OR OBSTRUCTIONS TO VISIBILITY.

AZZ001>003-036-250100-
NORTHWEST ARIZONA

CITY           SKY/WX    TMP DP  RH WIND       PRES   REMARKS
BULLHEAD CITY  SUNNY     82  23  11 S14G20    30.03F
KINGMAN        SUNNY     68  11  11 SW14      30.14F
6HR MIN TEMP:  63; 6HR MAX TEMP:  69;

$$

AZZ004>008-015-016-018-250100-
NORTH CENTRAL ARIZONA

CITY           SKY/WX    TMP DP  RH WIND       PRES   REMARKS
GRAND CANYON   SUNNY     56  16  20 SW5       30.23F
6HR MIN TEMP:  48; 6HR MAX TEMP:  57;

WILLIAMS       SUNNY     57  19  23 VRB5      30.23F
PRESCOTT       SUNNY     65  24  21 E5        30.18F
6HR MIN TEMP:  53; 6HR MAX TEMP:  65;

FLAGSTAFF      SUNNY     54  19  25 W7        30.23F
6HR MIN TEMP:  44; 6HR MAX TEMP:  54;

PAYSON         SUNNY     63  21  20 VRB5G14   30.22F
PAGE           SUNNY     64  38  38 NE8       30.12F
6HR MIN TEMP:  56; 6HR MAX TEMP:  65;

$$

AZZ009>014-017-250100-
NORTHEAST ARIZONA

CITY           SKY/WX    TMP DP  RH WIND       PRES   REMARKS
WINSLOW        SUNNY     66  11  11 N7        30.17F
6HR MIN TEMP:  57; 6HR MAX TEMP:  67;

SAINT JOHNS    SUNNY     61  21  21 W14       30.17F
6HR MIN TEMP:  54; 6HR MAX TEMP:  63;

WINDOW ROCK    SUNNY     59  18  20 W13G21    30.18S
6HR MIN TEMP:  50; 6HR MAX TEMP:  60;

SHOW LOW       SUNNY     55  18  22 NW10      30.23F
$$

AZZ023-250100-
GREATER PHOENIX AREA

CITY           SKY/WX    TMP DP  RH WIND       PRES   REMARKS
PHOENIX        SUNNY     77  30  17 NW8       30.07F
6HR MIN TEMP:  65; 6HR MAX TEMP:  78;

BUCKEYE        SUNNY     77  23  13 W3        30.08F
GLENDALE       SUNNY     79  32  18 CALM      30.09F
LUKE AFB       SUNNY     78  33  19 SW6       30.06F
6HR MIN TEMP:  66; 6HR MAX TEMP:  78; 6HR PCP: TRACE;

DEER VALLEY    SUNNY     74  34  23 SW7       30.08F
6HR MIN TEMP:  63; 6HR MAX TEMP:  75;

SCOTTSDALE     SUNNY     75  31  19 SW6       30.10F
6HR MIN TEMP:  65; 6HR MAX TEMP:  77;

MESA-FALCON    SUNNY    N/A N/A N/A W6        30.06F
MESA-GATEWAY   SUNNY     73  28  19 CALM      30.10F
CHANDLER       SUNNY     77  25  14 W12       30.09F
$$

AZZ027-028-250100-
SOUTHWEST MARICOPA COUNTY AND PINAL COUNTY

CITY           SKY/WX    TMP DP  RH WIND       PRES   REMARKS
CASA GRANDE    NOT AVBL
GILA BEND      SUNNY     78  27  15 CALM      30.07F
6HR MIN TEMP:  69; 6HR MAX TEMP:  79;

$$

AZZ503-504-507>509-250100-
SOUTHEAST ARIZONA

CITY           SKY/WX    TMP DP  RH WIND       PRES   REMARKS
TUCSON         SUNNY     73  20  13 N9        30.15F
6HR MIN TEMP:  63; 6HR MAX TEMP:  75;

DAVIS-MONTHAN  SUNNY     72  22  15 NW9       30.14F
6HR MIN TEMP:  64; 6HR MAX TEMP:  72;

RYAN FIELD     SUNNY     72  23  16 NW10      30.15
NOGALES        SUNNY     70  17  13 W8        30.16F
6HR MIN TEMP:  62; 6HR MAX TEMP:  72;

SIERRA VISTA   SUNNY     67  13  12 NW10      30.20F
6HR MIN TEMP:  59; 6HR MAX TEMP:  69;

DOUGLAS        SUNNY     70  15  12 W8        30.16S
6HR MIN TEMP:  61; 6HR MAX TEMP:  71;

SAFFORD        SUNNY     73  27  18 NW17G26   30.07F
6HR MIN TEMP:  64; 6HR MAX TEMP:  74;

$$

AZZ020-021-025-026-031-250100-
SOUTHWEST ARIZONA

CITY           SKY/WX    TMP DP  RH WIND       PRES   REMARKS
YUMA           SUNNY     80  28  15 SW8       30.06F
6HR MIN TEMP:  71; 6HR MAX TEMP:  81;

$$

CAZ031-033-041-043-047-048-061-250100-
SOUTHERN CALIFORNIA

CITY           SKY/WX    TMP DP  RH WIND       PRES   REMARKS
DOWNTOWN L.A.  MOSUNNY   66  50  56 VRB6      30.16F
6HR MIN TEMP:  65; 6HR MAX TEMP:  72;

L.A. AIRPORT   MOSUNNY   62  54  74 W20       30.17F
6HR MIN TEMP:  62; 6HR MAX TEMP:  67;

SAN DIEGO      MOSUNNY   66  51  58 NW10      30.20S
6HR MIN TEMP:  64; 6HR MAX TEMP:  68;

BURBANK        MOSUNNY   67  44  43 S9        30.14F
6HR MIN TEMP:  61; 6HR MAX TEMP:  70;

ONTARIO        MOSUNNY   68  46  45 SW16      30.14F
6HR MIN TEMP:  60; 6HR MAX TEMP:  73;

RIVERSIDE      MOSUNNY   70  46  42 W13       30.14F
6HR MIN TEMP:  62; 6HR MAX TEMP:  73;

PALM SPRINGS   SUNNY     81  32  17 SE8       30.07F
6HR MIN TEMP:  71; 6HR MAX TEMP:  83;

EL CENTRO NAS  SUNNY     81  30  15 SE7       30.05F
6HR MIN TEMP:  68; 6HR MAX TEMP:  81;

IMPERIAL       SUNNY     82  36  19 E10       30.03F
6HR MIN TEMP:  70; 6HR MAX TEMP:  83;

BLYTHE         SUNNY     82  27  13 S5        30.04
6HR MIN TEMP:  67; 6HR MAX TEMP:  82;

NEEDLES        SUNNY     83  25  12 S7        30.04F
6HR MIN TEMP:  70; 6HR MAX TEMP:  83;

$$

NVZ020-UTZ003-250100-
SOUTHERN NEVADA-UTAH

CITY           SKY/WX    TMP DP  RH WIND       PRES   REMARKS
LAS VEGAS      MOSUNNY   78  22  12 S9        30.00F
6HR MIN TEMP:  65; 6HR MAX TEMP:  79;

SALT LAKE CITY CLOUDY    57  32  38 S13       30.07F
6HR MIN TEMP:  50; 6HR MAX TEMP:  59;

$$

NMZ009-TXZ055-250100-
NEW MEXICO-WEST TEXAS

CITY           SKY/WX    TMP DP  RH WIND       PRES   REMARKS
ALBUQUERQUE    MOSUNNY   67  19  16 NW16G25   30.05S
6HR MIN TEMP:  57; 6HR MAX TEMP:  68;

EL PASO        MOSUNNY   74  20  13 NW21      30.02S
6HR MIN TEMP:  63; 6HR MAX TEMP:  74;

$$


........................KEY........................
SKY/WX - SKY CONDITION/WEATHER
TMP    - TEMPERATURE IN FAHRENHEIT
DP     - DEW POINT IN FAHRENHEIT
RH     - RELATIVE HUMIDITY IN PERCENT
WIND   - DIRECTION AND SPEED IN MILES PER HOUR (MPH)
VRB    - VARIABLE WIND DIRECTION
PRES   - MEAN SEA LEVEL PRESSURE IN INCHES OF MERCURY
         F - FALLING PRESSURE   R - RISING PRESSURE
         S - STEADY PRESSURE
VSB    - VISIBILITY IN MILES
HX     - HEAT INDEX IN FAHRENHEIT
WCI    - WIND CHILL INDEX IN FAHRENHEIT
TC     - TEMPERATURE IN CELSIUS WHICH IS ALSO KNOWN AS
         TEMPERATURE IN CENTIGRADE
AFB    - AIR FORCE BASE
         LUKE AFB IS LUKE AIR FORCE BASE
         DAVIS-MONTHAN IS DAVIS-MONTHAN AIR FORCE BASE
NAS    - NAVAL AIR STATION
         EL CENTRO NAS IS EL CENTRO NAVAL AIR STATION
N/A    - NOT AVAILABLE





USA.gov is the U.S. government's official web portal to all federal, state and local government web resources and services.